Weather History for Monroe, LA

Change the Weather History Date:

Monday, October 29, 2012

  Actual Average Record
Temperature  
Mean Temperature 49 °F 62 °F  
Max Temperature 62 °F 75 °F 88 °F (1971)
Min Temperature 35 °F 49 °F 29 °F (1952)
Degree Days  
Heating Degree Days 16 5  
Month to date heating degree days 92 74  
Since 1 July heating degree days 93 80  
Cooling Degree Days 0 2  
Month to date cooling degree days 91 116  
Year to date cooling degree days 2760 2480  
Moisture  
Dew Point 35 °F    
Average Humidity 62    
Maximum Humidity 92    
Minimum Humidity 32    
Precipitation  
Precipitation 0.00 in 0.14 in 1.73 in (1991)
Month to date precipitation 1.46 4.50  
Year to date precipitation 50.11 43.61  
Snow  
Snow 0.00 in - - ()
Month to date snowfall 0.0  
Since 1 July snowfall 0.0  
Since 1 September snowfall 0.0  
Snow Depth 0.00 in    
Sea Level Pressure  
Sea Level Pressure 30.23 in    
Wind  
Wind Speed 4 mph (North)    
Max Wind Speed 16 mph    
Max Gust Speed 20 mph    
Visibility 10 miles    
Events      
T = Trace of Precipitation, MM = Missing Value Source: NWS Daily Summary

Daily Weather History Graph

Daily Weather History Graph

Search for Another Location

Airport:

Trip Planner

Search our weather history database for the weather conditions in past years. The results will help you decide how hot, cold, wet, or windy it might be!

Date:

Astronomy

Oct. 29, 2012 Rise Set
Actual Time 7:23 AM CDT 6:19 PM CDT
Civil Twilight 6:58 AM CDT 6:45 PM CDT
Nautical Twilight 6:29 AM CDT 7:14 PM CDT
Astronomical Twilight 6:00 AM CDT 7:42 PM CDT
Moon 6:14 PM CDT (10/29) 7:12 AM CDT (10/29)
Length of Visible Light 11h 46m
Length of Day
10h 56m
Full, 100% of the Moon is Illuminated
Oct 29
Full
Oct 29
Full
Nov 6
Last Quarter
Nov 13
New
Nov 20
First Quarter

Hourly Weather History & Observations

Time (CDT) Temp. Windchill Dew Point Humidity Pressure Visibility Wind Dir Wind Speed Gust Speed Precip Events Conditions
12:53 AM 41.0 °F 39.0 °F 37.9 °F 89% 30.23 in 10.0 mi NNE 3.5 mph - N/A   Clear
1:53 AM 41.0 °F - 37.9 °F 89% 30.23 in 10.0 mi Calm Calm - N/A   Clear
2:53 AM 39.9 °F - 37.0 °F 89% 30.22 in 10.0 mi Calm Calm - N/A   Clear
3:53 AM 37.9 °F 35.5 °F 35.1 °F 89% 30.23 in 10.0 mi North 3.5 mph - N/A   Clear
4:53 AM 39.0 °F 36.8 °F 34.0 °F 82% 30.24 in 10.0 mi North 3.5 mph - N/A   Clear
5:53 AM 37.9 °F - 34.0 °F 86% 30.25 in 10.0 mi Calm Calm - N/A   Clear
6:53 AM 36.0 °F - 33.1 °F 89% 30.27 in 10.0 mi Calm Calm - N/A   Clear
7:53 AM 37.0 °F - 33.1 °F 86% 30.29 in 10.0 mi Calm Calm - N/A   Clear
8:53 AM 45.0 °F 42.6 °F 37.0 °F 74% 30.30 in 10.0 mi North 4.6 mph - N/A   Clear
9:53 AM 50.0 °F - 37.0 °F 61% 30.30 in 10.0 mi NNE 11.5 mph - N/A   Clear
10:53 AM 53.1 °F - 34.0 °F 48% 30.30 in 10.0 mi North 10.4 mph - N/A   Clear
11:53 AM 55.9 °F - 32.0 °F 40% 30.30 in 10.0 mi NE 8.1 mph - N/A   Clear
12:53 PM 59.0 °F - 32.0 °F 36% 30.27 in 10.0 mi North 11.5 mph 16.1 mph N/A   Clear
1:53 PM 61.0 °F - 32.0 °F 34% 30.24 in 10.0 mi North 11.5 mph - N/A   Clear
2:53 PM 60.8 °F - 30.2 °F 31% 30.21 in 10.0 mi NNW 10.4 mph - N/A   Clear
3:53 PM 62.1 °F - 32.0 °F 32% 30.19 in 10.0 mi North 9.2 mph - N/A   Clear
4:53 PM 61.0 °F - 33.1 °F 35% 30.17 in 10.0 mi North 8.1 mph - N/A   Clear
5:53 PM 57.9 °F - 32.0 °F 37% 30.16 in 10.0 mi North 5.8 mph - N/A   Clear
6:53 PM 52.0 °F - 34.0 °F 50% 30.17 in 10.0 mi North 4.6 mph - N/A   Clear
7:53 PM 46.0 °F - 37.9 °F 73% 30.17 in 10.0 mi Calm Calm - N/A   Clear
8:53 PM 46.0 °F - 37.0 °F 71% 30.17 in 10.0 mi Calm Calm - N/A   Clear
9:53 PM 44.1 °F - 37.9 °F 79% 30.18 in 10.0 mi Calm Calm - N/A   Clear
10:53 PM 42.1 °F - 37.9 °F 85% 30.18 in 10.0 mi Calm Calm - N/A   Clear
11:53 PM 41.0 °F - 37.9 °F 89% 30.16 in 10.0 mi Calm Calm - N/A   Clear